When you browse on this site, cookies collect data to enhance your experience and personalize the content and advertising you see.
Visit our Privacy Policy to learn more. By continuing to use the site, you agree to this use of cookies and data.
  • In Sweden
  • List of Countries
  • For 7 days
  • Water Temperature
  • Satellite Maps
  • Weather Map
  • Weather Widgets
  • user-avatar
    Login

    Hourly Weather Plovdiv

    Today, 21 November, Wednesday

    Time Temperature Precipitation Wind Pressure Humidity
    00:00 +11°C° 0.4 mm 1 mps 737 mmHg 97%
    01:00 +11°C° 0.4 mm 1 mps 737 mmHg 97%
    02:00 +11°C° 0.4 mm 1 mps 736 mmHg 97%
    03:00 +11°C° 0.5 mm 1 mps 736 mmHg 97%
    04:00 +11°C° 0.5 mm 1 mps 735 mmHg 97%
    05:00 +11°C° 0.5 mm 1 mps 735 mmHg 97%
    06:00 +11°C° 0.6 mm 1 mps 735 mmHg 97%
    07:00 +12°C° 0.6 mm 1 mps 734 mmHg 97%
    08:00 +12°C° 0.6 mm 1 mps 734 mmHg 97%
    09:00 +12°C° 0.9 mm 1 mps 734 mmHg 96%
    10:00 +13°C° 0.9 mm 1 mps 734 mmHg 95%
    11:00 +13°C° 0.9 mm 1 mps 734 mmHg 93%
    12:00 +13°C° 1.1 mm 1 mps 734 mmHg 92%
    13:00 +13°C° 1.1 mm 2 mps 734 mmHg 92%
    14:00 +13°C° 1.1 mm 2 mps 734 mmHg 91%
    15:00 +12°C° 0.9 mm 2 mps 734 mmHg 91%
    16:00 +10°C° 0.9 mm 2 mps 735 mmHg 91%
    17:00 +10°C° 0.9 mm 2 mps 735 mmHg 91%
    18:00 +9°C° 0.5 mm 2 mps 735 mmHg 90%
    19:00 +9°C° 0.5 mm 2 mps 736 mmHg 89%
    20:00 +9°C° 0.5 mm 2 mps 736 mmHg 89%
    21:00 +8°C° 0.2 mm 2 mps 737 mmHg 88%
    22:00 +8°C° 0.2 mm 2 mps 737 mmHg 88%
    23:00 +8°C° 0.2 mm 2 mps 738 mmHg 87%

    Tomorrow, 22 November, Thursday

    Time Temperature Precipitation Wind Pressure Humidity
    00:00 +7°C° 0.1 mm 2 mps 738 mmHg 87%
    01:00 +7°C° 0.1 mm 2 mps 738 mmHg 87%
    02:00 +7°C° 0.1 mm 2 mps 739 mmHg 87%
    03:00 +7°C° 0.1 mm 2 mps 739 mmHg 87%
    04:00 +7°C° 0.1 mm 2 mps 739 mmHg 87%
    05:00 +7°C° 0.1 mm 2 mps 739 mmHg 87%
    06:00 +7°C° 0.1 mm 2 mps 740 mmHg 86%
    07:00 +6°C° 0.1 mm 2 mps 740 mmHg 86%
    08:00 +7°C° 0.1 mm 1 mps 740 mmHg 86%
    09:00 +8°C° 0.1 mm 1 mps 741 mmHg 83%
    10:00 +9°C° 0.1 mm 1 mps 741 mmHg 80%
    11:00 +10°C° 0.1 mm 1 mps 741 mmHg 76%
    12:00 +10°C° 0.1 mm 1 mps 741 mmHg 76%
    13:00 +10°C° 0.1 mm 1 mps 741 mmHg 76%
    14:00 +11°C° 0.1 mm 1 mps 741 mmHg 76%
    15:00 +10°C° 0.1 mm 1 mps 741 mmHg 80%
    16:00 +9°C° 0.1 mm 1 mps 742 mmHg 83%
    17:00 +9°C° 0.1 mm 1 mps 742 mmHg 86%
    18:00 +9°C° 0.1 mm 1 mps 742 mmHg 88%
    19:00 +8°C° 0.1 mm 1 mps 743 mmHg 89%
    20:00 +8°C° 0.1 mm 1 mps 743 mmHg 90%
    21:00 +8°C° 0 mm 1 mps 743 mmHg 90%
    22:00 +7°C° 0 mm 1 mps 744 mmHg 91%
    23:00 +6°C° 0 mm 0 mps 744 mmHg 91%

    Day after tomorrow, 23 November, Friday

    Time Temperature Precipitation Wind Pressure Humidity
    00:00 +6°C° 0 mm 0 mps 744 mmHg 92%
    01:00 +6°C° 0 mm 0 mps 744 mmHg 92%
    02:00 +6°C° 0 mm 0 mps 744 mmHg 92%
    03:00 +5°C° 0 mm 0 mps 744 mmHg 92%
    04:00 +5°C° 0 mm 0 mps 745 mmHg 92%
    05:00 +5°C° 0 mm 0 mps 745 mmHg 92%
    06:00 +6°C° 0 mm 1 mps 745 mmHg 92%
    07:00 +6°C° 0 mm 1 mps 745 mmHg 91%
    08:00 +6°C° 0 mm 1 mps 746 mmHg 90%
    09:00 +8°C° 0 mm 1 mps 746 mmHg 85%
    10:00 +9°C° 0 mm 1 mps 746 mmHg 80%
    11:00 +10°C° 0 mm 1 mps 746 mmHg 74%
    12:00 +11°C° 0 mm 1 mps 746 mmHg 73%
    13:00 +11°C° 0 mm 1 mps 746 mmHg 72%
    14:00 +11°C° 0 mm 1 mps 746 mmHg 71%
    15:00 +10°C° 0 mm 1 mps 746 mmHg 75%
    16:00 +9°C° 0 mm 1 mps 746 mmHg 79%
    17:00 +8°C° 0 mm 1 mps 746 mmHg 83%
    18:00 +8°C° 0 mm 1 mps 746 mmHg 84%
    19:00 +7°C° 0 mm 1 mps 746 mmHg 84%
    20:00 +7°C° 0 mm 1 mps 747 mmHg 85%
    21:00 +6°C° 0 mm 1 mps 747 mmHg 85%
    22:00 +6°C° 0 mm 1 mps 747 mmHg 84%
    23:00 +6°C° 0 mm 1 mps 747 mmHg 84%

    24 November, Saturday

    Time Temperature Precipitation Wind Pressure Humidity
    00:00 +5°C° 0 mm 1 mps 747 mmHg 83%
    01:00 +5°C° 0 mm 1 mps 747 mmHg 82%
    02:00 +5°C° 0 mm 1 mps 746 mmHg 82%
    03:00 +5°C° 0 mm 1 mps 746 mmHg 81%
    04:00 +5°C° 0 mm 1 mps 746 mmHg 80%
    05:00 +5°C° 0 mm 1 mps 746 mmHg 80%
    06:00 +5°C° 0 mm 1 mps 746 mmHg 79%
    07:00 +5°C° 0 mm 1 mps 746 mmHg 79%
    08:00 +5°C° 0 mm 1 mps 746 mmHg 78%
    09:00 +7°C° 0 mm 1 mps 745 mmHg 72%
    10:00 +9°C° 0 mm 1 mps 745 mmHg 65%
    11:00 +10°C° 0 mm 1 mps 745 mmHg 59%
    12:00 +11°C° 0 mm 1 mps 744 mmHg 58%
    13:00 +11°C° 0 mm 1 mps 744 mmHg 58%
    14:00 +12°C° 0 mm 1 mps 743 mmHg 57%
    15:00 +10°C° 0 mm 1 mps 743 mmHg 62%
    16:00 +9°C° 0 mm 1 mps 743 mmHg 67%
    17:00 +8°C° 0 mm 1 mps 743 mmHg 72%
    18:00 +7°C° 0 mm 1 mps 743 mmHg 73%
    19:00 +7°C° 0 mm 1 mps 743 mmHg 75%
    20:00 +7°C° 0 mm 1 mps 743 mmHg 76%
    21:00 +7°C° 0 mm 1 mps 742 mmHg 77%
    22:00 +6°C° 0 mm 1 mps 742 mmHg 77%
    23:00 +6°C° 0 mm 1 mps 742 mmHg 78%

    25 November, Sunday

    Time Temperature Precipitation Wind Pressure Humidity
    00:00 +6°C° 0 mm 1 mps 742 mmHg 78%
    01:00 +6°C° 0 mm 1 mps 742 mmHg 78%
    02:00 +6°C° 0 mm 1 mps 742 mmHg 79%
    03:00 +6°C° 0 mm 1 mps 741 mmHg 78%
    04:00 +6°C° 0 mm 1 mps 741 mmHg 77%
    05:00 +6°C° 0 mm 1 mps 741 mmHg 77%
    06:00 +6°C° 0 mm 1 mps 740 mmHg 76%
    07:00 +7°C° 0 mm 1 mps 740 mmHg 74%
    08:00 +7°C° 0 mm 1 mps 740 mmHg 73%
    09:00 +9°C° 0 mm 1 mps 740 mmHg 68%
    10:00 +11°C° 0 mm 1 mps 740 mmHg 62%
    11:00 +13°C° 0 mm 1 mps 740 mmHg 57%
    12:00 +14°C° 0 mm 1 mps 739 mmHg 56%
    13:00 +14°C° 0 mm 1 mps 739 mmHg 56%
    14:00 +15°C° 0 mm 1 mps 738 mmHg 56%
    15:00 +14°C° 0 mm 1 mps 738 mmHg 62%
    16:00 +12°C° 0 mm 1 mps 738 mmHg 69%
    17:00 +11°C° 0 mm 1 mps 737 mmHg 75%
    18:00 +10°C° 0 mm 1 mps 737 mmHg 76%
    19:00 +10°C° 0 mm 1 mps 737 mmHg 77%
    20:00 +9°C° 0 mm 1 mps 737 mmHg 78%
    21:00 +9°C° 0 mm 1 mps 737 mmHg 78%
    22:00 +9°C° 0 mm 1 mps 737 mmHg 78%
    23:00 +9°C° 0 mm 1 mps 737 mmHg 78%

    26 November, Monday

    Time Temperature Precipitation Wind Pressure Humidity
    00:00 +9°C° 0 mm 1 mps 737 mmHg 78%
    01:00 +10°C° 0 mm 1 mps 736 mmHg 78%
    02:00 +10°C° 0 mm 1 mps 736 mmHg 78%
    03:00 +10°C° 0.3 mm 1 mps 736 mmHg 80%
    04:00 +10°C° 0.3 mm 1 mps 736 mmHg 82%
    05:00 +10°C° 0.3 mm 1 mps 735 mmHg 83%
    06:00 +10°C° 0.5 mm 1 mps 735 mmHg 85%
    07:00 +10°C° 0.5 mm 1 mps 735 mmHg 86%
    08:00 +9°C° 0.5 mm 0 mps 735 mmHg 88%
    09:00 +10°C° 0.3 mm 0 mps 735 mmHg 85%
    10:00 +11°C° 0.3 mm 0 mps 735 mmHg 82%
    11:00 +12°C° 0.3 mm 0 mps 735 mmHg 78%
    12:00 +12°C° 0 mm 0 mps 734 mmHg 76%
    13:00 +14°C° 0 mm 1 mps 734 mmHg 73%
    14:00 +15°C° 0 mm 1 mps 734 mmHg 70%
    15:00 +14°C° 0 mm 1 mps 734 mmHg 76%
    16:00 +11°C° 0 mm 0 mps 734 mmHg 81%
    17:00 +10°C° 0 mm 0 mps 733 mmHg 87%
    18:00 +10°C° 0 mm 0 mps 734 mmHg 88%
    19:00 +10°C° 0 mm 1 mps 734 mmHg 89%
    20:00 +10°C° 0 mm 1 mps 734 mmHg 89%
    21:00 +10°C° 0 mm 1 mps 734 mmHg 89%
    22:00 +10°C° 0 mm 1 mps 734 mmHg 89%
    23:00 +10°C° 0 mm 1 mps 734 mmHg 88%
    Show more